Showing default

SENTINEL 3A, 41335

Orbit data source: Space-Track

SENTINEL 3A, 41335 is an ESA payload satellite in SSO that was launched on Tue, 16 Feb 2016 UTC via an ROKOT launch vehicle from the Plesetsk Missile And Space Complex (PKMTR). Payload-class satellites include a variety of spacecraft equipped with specific instruments for various scientific and technological missions. These include communications satellites like Starlink; space stations such as the ISS; scientific satellites like the Hubble; Earth observation satellites from companies like Planet Labs, Umbra, and HawkEye 360; GPS; miniature CubeSats for education and research; and military/defense satellites.

Loading next visibility...
Identifier
41335, 2016-011A
Orbit
SSO
Country
Flag of ESAESA
Related business
Manufacturer
Thales Alenia
Mission
Operational Civil Imaging
Bus & Motor
SENTINEL-3A, Unknown motor
Mass
1,250 kg wet, 1,150 kg dry
Launch date (UTC)
2016-02-16 (10 years ago)
Launch vehicle
ROKOT
Launch site
Plesetsk Missile And Space Complex (PKMTR)
Object type
Payload
Rocket body
Debris
Shape & HBR
Box + 1 Pan, 3.5 m
Radar Cross Section
12.454 m², Large (>1 m²)

Expand to show TLE details & history
Last TLE update: 16 hours ago

TLE from 16 hours ago
0 SENTINEL 3A
1 41335U 16011A   25261.25280090  .00000102  00000-0  60374-4 0  9994
2 41335  98.6319 327.4944 0000971 107.7765 252.3522 14.26735540499287
Epoch: 2025-09-18T06:04Z
TLE epoch observation values (Epoch: 2025-09-18T06:04:01.997Z)
Latitude
0.00001°
Longitude
-120.93098°
Altitude
805.801 km
Speed
7.45 km/s
True Right ascension
21h 49m 58s
True Declination
0° 00' 00"
Sunlit
Object was in full shadow at epoch
Visualization orbit readout
Latitude
Unknown
Longitude
Unknown
Altitude
Unknown
Speed
Unknown
Apparent Right ascension
Unknown
Apparent Declination
Unknown
Sunlit
N/A
Visualization observer readout
Local Sidereal Time
15:05:53
Azimuth
Unknown
Elevation
Unknown
Doppler factor
Unknown
Orbital elements
Apogee altitude
800.506 km
Perigee altitude
799.112 km
Semi-major axis
7,177.946 km
Eccentricity
0.0001
Inclination
98.6319°
RAAN
327.4944°
Arg. of periapsis
107.7765°
True anomaly
252.3416°
Mean anomaly
252.3522°
Eccentric anomaly
252.3469°
Mean motion
3.56897 °/min
Orbital period
100.87 mins
BSTAR
0.000060374
Loading maneuver chart data...
Computing Atmospheric mass density...
Loading historical data...
Loading historical data...
Loading historical data...
Loading historical data...
Loading historical data...
Loading historical data...
Loading historical data...
Other satellites on launch #11 in the year 2016 (2016-02-16 UTC)

Documentation

Showing up to 5 results
|